Location: Ay?beleni
(36.6500°N, 30.3000°E)
Time: 03:35:03
(UTC+00:00)

Cosmos 1821 Rocket - Pass Details

Date: 16 October 2021
Orbit: 944 x 1005 km, 82.9° (Epoch: 08 December)

Event Time Altitude Azimuth Distance (km) Brightness Sun altitude
Rises 15:36:04 0° 163° (SSE) 3,711 6.9 -3.8°
Reaches altitude 10° 15:38:44 10° 155° (SSE) 2,769 6.2 -4.3°
Maximum altitude 15:44:34 39° 89° (E) 1,457 4.5 -5.5°
Drops below altitude 10° 15:50:26 10° 23° (NNE) 2,782 6.1 -6.7°
Sets 15:53:07 0° 16° (NNE) 3,731 6.8 -7.2°
